Regional Weather Roundup
Issued by NWS

Home | Current Version | Previous Version | Text Only | Print | Product List | Glossary On
Versions: 1 2 3 4 5 6 7 8 9 10 11 12 13 14 15 16 17 18 19 20 21 22 23 24 25 26 27 28 29 30 31 32 33 34 35 36 37 38 39 40 41 42 43 44 45 46 47 48 49 50
000
ASUS43 KDTX 210810
RWRMI
MICHIGAN HOURLY REGIONAL WEATHER ROUNDUP
NATIONAL WEATHER SERVICE DETROIT/PONTIAC MI
400 AM EDT THU AUG 21 2014

NOTE: "FAIR" INDICATES FEW OR NO CLOUDS BELOW 12,000 FEET WITH NO
SIGNIFICANT WEATHER AND/OR OBSTRUCTION TO VISIBILITY.

MIZ047>049-052>055-059>063-066>070-074>076-081>083-210900-
SOUTHEAST LOWER MICHIGAN

CITY           SKY/WX    TMP DP  RH WIND       PRES   REMARKS
ADRIAN         CLEAR     65  63  93 CALM      29.98S
ALMA           CLEAR     57  56  97 CALM      29.97S FOG
ANN ARBOR      MOCLDY    65  61  87 CALM      29.96S
BAD AXE        CLOUDY    65  65 100 NW6       29.95S FOG
DETROIT CITY   CLEAR     70  63  78 W3        29.95S
DETROIT        MOCLDY    68  63  84 CALM      29.96S
FLINT          CLEAR     64  60  87 W5        29.97R
GROSSE ILE     MOCLDY    70  64  83 CALM      29.94F
HILLSDALE      PTCLDY    66  66 100 CALM      29.98S
HOWELL         PTCLDY    63  62  96 CALM      29.97S

CITY           SKY/WX    TMP DP  RH WIND       PRES   REMARKS
JACKSON        PTCLDY    66  63  90 CALM      29.97S
LAMBERTVILLE   PTCLDY    68  64  88 CALM      29.96F
LANSING        CLEAR     63  61  93 CALM      29.97S
LAPEER         NOT AVBL
MASON          PTCLDY    61  60  97 CALM      29.97S FOG
MONROE         LGT RAIN  66  64  94 CALM      29.94S
MT. CLEMENS    CLEAR     67  64  89 W6        29.94R
PONTIAC        CLEAR     65  61  87 NW5       29.96S
PORT HOPE        N/A     66  64  93 NW6       29.93S
PORT HURON     CLEAR     63  63 100 CALM      29.94S
TRI CITIES     CLEAR     63  59  87 N6        29.96F
YPSILANTI      PTCLDY    70  63  78 CALM      29.96F
$$
MIZ043>046-050>051-056>058-064>065-071>073-077>080-210900-
SOUTHWEST LOWER MICHIGAN

CITY           SKY/WX    TMP DP  RH WIND       PRES   REMARKS
BATTLE CREEK   PTCLDY    67  64  90 CALM      29.97S
BENTON HARBOR  PTCLDY    72  69  90 SW7       29.95S
BIG RAPIDS     FOG       57  57 100 CALM      29.97F VSB 1/4
COLDWATER      MOCLDY    69  68  96 SW5       29.97S
HOLLAND        CLEAR     65  63  93 CALM      29.96S FOG
GRAND RAPIDS   PTCLDY    66  66 100 CALM      29.97S
KALAMAZOO      PTCLDY    67  64  90 CALM      29.97R
MARSHALL       PTCLDY    63  62  98 CALM      29.97S FOG
MUSKEGON       PTCLDY    66  61  84 CALM      29.96F
$$
MIZ016>042-210900-
NORTHERN LOWER MICHIGAN

CITY           SKY/WX    TMP DP  RH WIND       PRES   REMARKS
ALPENA         CLOUDY    63  62  97 W3        29.95S
BEAVER ISLAND  CLOUDY    62  61  97 CALM      29.98R
BELLAIRE       CLOUDY    63  61  93 CALM      29.98R
CADILLAC       CLOUDY    59  57  93 CALM      29.98F
CHARLEVOIX     CLOUDY    64  64 100 W3        30.00S
FRANKFORT      MOSUNNY   59  56  91 CALM      29.98R
GAYLORD        CLOUDY    61  61 100 W5        29.98S FOG
GRAYLING       CLOUDY    62  62  99 W3        29.99S
HARBOR SPRINGS CLOUDY    64  62  96 CALM      29.97R FOG
HOUGHTON LAKE  CLOUDY    62  60  93 W6        29.98F
MANISTEE       PTCLDY    55  54  94 SE5       29.98S
OSCODA         CLOUDY    64  64  98 W3        29.95R
PELLSTON       CLOUDY    63  61  93 W3        29.97R
TRAVERSE CITY  CLOUDY    62  59  90 CALM      29.97S
$$
MIZ007>008-015-210900-
EASTERN UPPER MICHIGAN

CITY           SKY/WX    TMP DP  RH WIND       PRES   REMARKS
KINROSS        CLOUDY    59  57  94 N5        29.95R VSB 1
MACKINAC ISLAN CLOUDY    60  60 100 CALM      29.96R
NEWBERRY       CLOUDY    57  57 100 CALM      29.97R FOG
S. S. MARIE    CLOUDY    60  58  92 W5        29.94S
$$
MIZ004>006-011>014-085-210900-
CENTRAL UPPER MICHIGAN

CITY           SKY/WX    TMP DP  RH WIND       PRES   REMARKS
MANISTIQUE     FOG       59  59 100 CALM      29.97R VSB 1
ESCANABA       CLOUDY    63  59  88 CALM      29.97R
MENOMINEE      CLOUDY    64  63  94 CALM      29.96S
SAWYER-GWINN   CLOUDY    58  58  97 CALM      29.98S FOG
$$
MIZ001>003-009>011-084-210900-
WESTERN UPPER MICHIGAN

CITY           SKY/WX    TMP DP  RH WIND       PRES   REMARKS
IRON MOUNTAIN  CLOUDY    64  61  90 CALM      29.97S
HOUGHTON       FOG       60  59  96 S3        29.96S VSB 1/4
COPPER HARBOR    N/A     59  57  93 CALM      29.96R
IRONWOOD       PTCLDY    54  54 100 E3        29.92F
$$

ABBREVIATIONS USED IN REMARKS
   TC - TEMPERATURE IN CELSIUS
  WCI - WIND CHILL INDEX
   HX - HEAT INDEX
  VSB - VISIBILITY




USA.gov is the U.S. government's official web portal to all federal, state and local government web resources and services.